Weather History for Manhattan, KS

Change the Weather History Date:

Saturday, October 15, 2011

  Actual Average Record
Temperature  
Mean Temperature 56 °F 55 °F  
Max Temperature 77 °F 68 °F 89 °F (1999)
Min Temperature 37 °F 43 °F 30 °F (2002)
Degree Days  
Heating Degree Days 9 10  
Month to date heating degree days 121  
Since 1 July heating degree days 191  
Cooling Degree Days 0 0  
Month to date cooling degree days 21  
Year to date cooling degree days 1358  
Growing Degree Days 6 (Base 50)    
Moisture  
Dew Point 41 °F    
Average Humidity 62    
Maximum Humidity 97    
Minimum Humidity 28    
Precipitation  
Precipitation 0.00 in 0.08 in 0.76 in (2008)
Month to date precipitation 1.18  
Year to date precipitation 28.89  
Sea Level Pressure  
Sea Level Pressure 30.00 in    
Wind  
Wind Speed 5 mph (SW)    
Max Wind Speed 15 mph    
Max Gust Speed 25 mph    
Visibility 10 miles    
Events      
T = Trace of Precipitation, MM = Missing Value Source: NWS Daily Summary

Daily Weather History Graph

Daily Weather History Graph

Search for Another Location

Airport:

Trip Planner

Search our weather history database for the weather conditions in past years. The results will help you decide how hot, cold, wet, or windy it might be!

Date:

Astronomy

Oct. 15, 2011 Rise Set
Actual Time 7:36 AM CDT 6:48 PM CDT
Civil Twilight 7:09 AM CDT 7:15 PM CDT
Nautical Twilight 6:38 AM CDT 7:46 PM CDT
Astronomical Twilight 6:07 AM CDT 8:17 PM CDT
Moon 8:47 PM CDT (10/15) 10:59 AM CDT (10/15)
Length of Visible Light 12h 06m
Length of Day
11h 12m
Waning Gibbous, 89% of the Moon is Illuminated
Oct 15
Waning Gibbous
Oct 19
Last Quarter
Oct 26
New
Nov 2
First Quarter
Nov 10
Full

Hourly Weather History & Observations

Time (CDT) Temp. Windchill Dew Point Humidity Pressure Visibility Wind Dir Wind Speed Gust Speed Precip Events Conditions
12:52 AM 42.1 °F 39.2 °F 37.0 °F 82% 30.09 in 10.0 mi SSW 4.6 mph - N/A   Clear
1:52 AM 41.0 °F - 37.0 °F 86% 30.10 in 10.0 mi Calm Calm - N/A   Clear
2:52 AM 39.9 °F - 37.9 °F 93% 30.11 in 10.0 mi Calm Calm - N/A   Clear
3:52 AM 39.0 °F - 37.0 °F 93% 30.10 in 10.0 mi Calm Calm - N/A   Clear
4:52 AM 37.9 °F - 37.0 °F 97% 30.11 in 10.0 mi Calm Calm - N/A   Clear
5:52 AM 37.0 °F - 36.0 °F 96% 30.12 in 10.0 mi Calm Calm - N/A   Clear
6:52 AM 37.0 °F - 36.0 °F 96% 30.11 in 10.0 mi Calm Calm - N/A   Clear
7:52 AM 37.0 °F - 35.1 °F 93% 30.11 in 10.0 mi Calm Calm - N/A   Clear
8:52 AM 44.1 °F - 39.0 °F 82% 30.13 in 10.0 mi Calm Calm - N/A   Clear
9:52 AM 48.9 °F - 39.9 °F 71% 30.11 in 10.0 mi Calm Calm - N/A   Clear
10:52 AM 61.0 °F - 39.0 °F 44% 30.10 in 10.0 mi SSW 3.5 mph - N/A   Clear
11:52 AM 66.9 °F - 36.0 °F 32% 30.06 in 10.0 mi SSW 11.5 mph - N/A   Clear
12:52 PM 71.1 °F - 36.0 °F 28% 30.04 in 10.0 mi SW 15.0 mph - N/A   Clear
1:52 PM 73.0 °F - 37.9 °F 28% 30.00 in 10.0 mi SSW 13.8 mph - N/A   Clear
2:52 PM 75.0 °F - 39.9 °F 28% 29.96 in 10.0 mi SSW 12.7 mph 23.0 mph N/A   Clear
3:52 PM 75.9 °F - 42.1 °F 30% 29.93 in 10.0 mi SW 13.8 mph 23.0 mph N/A   Clear
4:52 PM 75.9 °F - 43.0 °F 31% 29.90 in 10.0 mi SSW 15.0 mph 25.3 mph N/A   Clear
5:52 PM 73.9 °F - 45.0 °F 35% 29.88 in 10.0 mi SSW 10.4 mph - N/A   Clear
6:52 PM 69.1 °F - 46.0 °F 44% 29.87 in 10.0 mi SSW 9.2 mph - N/A   Clear
7:52 PM 66.0 °F - 46.0 °F 48% 29.87 in 10.0 mi WSW 6.9 mph - N/A   Clear
8:52 PM 61.0 °F - 46.9 °F 60% 29.88 in 10.0 mi SW 3.5 mph - N/A   Clear
9:52 PM 62.1 °F - 48.0 °F 60% 29.86 in 10.0 mi SW 10.4 mph - N/A   Clear
10:52 PM 63.0 °F - 48.0 °F 58% 29.84 in 10.0 mi SW 9.2 mph - N/A   Clear
11:52 PM 62.1 °F - 50.0 °F 65% 29.82 in 10.0 mi SW 8.1 mph - N/A   Clear